sat.trackr.live / text

‹ back to catalog

ONEWEB-0598

NORAD 55154 · 2023-004Q

PAYLOAD ACTIVE UNKNOWN

§ Identity

Operator
Country
UK
Launch date
2023-01-10
Launch site
AFETR
Launch vehicle
Mass (kg)
RCS (m²)

Purposes: comms

External: N2YO · Heavens-Above · Gunter

§ Orbital elements

Epoch: 2026-05-25T02:50:50.512416Z

Period
109.80 min
Inclination
87.8908°
Eccentricity
0.0001068
Mean motion
13.11416017 rev/d
Perigee alt
1,216.9 km
Apogee alt
1,218.5 km
Semi-major
7,595.8 km
B*
1.5420e-3
RAAN
25.6590°
Arg perigee
84.2027°
Mean anomaly
275.9222°
Rev number
16,287

§ Raw data

ONEWEB-05981 55154U 23004Q   26145.11864019  .00000559  00000+0  15420-2 0  99992 55154  87.8908  25.6590 0001068  84.2027 275.9222 13.11416017162875

JSON: /api/v1/satellites/55154 · /tle

For live sub-satellite position, see the globe view (requires WebGL).

§ Visibility from observer

Set your observer location to see the next 7 days of passes ≥ 10°. The values pass through the URL so the page stays shareable.

No JS? Fill the form by hand. The geolocation button needs JavaScript.